Torna al catalogo

STARLINK-38163

AttivoComunicazioniSSO
NORAD 100250·PAYLOAD·🇺🇸 United States

Lanciato Aug 8, 2026 da Vandenberg Space Force Base

Loading…

Prossimi Passaggi (prossime 24 ore)

TLE

AggiornatoSource: Space-Track

Epoca: Sep 14, 2026, 14:24 UTC

1 A0250U 26181E   26257.60014887  .00166912  00000-0  10957-2 0  9990
2 A0250  97.2826 300.7802 0001144  49.4414 310.6950 15.75243405  7028

Traccia STARLINK-38163 in tempo reale con AllMySat

Download on the App Store